This is the latest recevied weather packets stored in our database for station/object N0HEQ. If no packets are shown the sender has not sent any weather packets the latest 1 day(s).
| Time | Temp. | Humidity | Pressure | Rain* | Wind** | Luminosity | Snow |
|---|---|---|---|---|---|---|---|
| 1778099132 | 2.22° C | 82% | 1022.6 hPa | 0 mm | - | 191 W/m² | - |
| 1778098828 | 1.67° C | 85% | 1022.7 hPa | 0 mm | - | 211 W/m² | - |
| 1778094887 | 1.11° C | 89% | 1023.3 hPa | 0 mm | - | 136 W/m² | - |
| 1778094280 | 1.67° C | 91% | 1023.3 hPa | 0 mm | - | 109 W/m² | - |
| 1778093674 | 1.11° C | 93% | 1023.4 hPa | 0 mm | - | 123 W/m² | - |
| 1778093371 | 0.56° C | 94% | 1023.3 hPa | 0 mm | - | 77 W/m² | - |
| 1778092158 | 0.56° C | 96% | 1023.6 hPa | 0 mm | - | 56 W/m² | - |
| 1778091855 | 0.56° C | 96% | 1023.3 hPa | 0 mm | - | 61 W/m² | - |
| 1778091250 | 0° C | 97% | 1023.4 hPa | 0 mm | - | 27 W/m² | - |
| 1778090036 | 0° C | 97% | 1023.2 hPa | 0 mm | - | 25 W/m² | - |
| 1778089431 | 0° C | 97% | 1023.1 hPa | 0 mm | - | 22 W/m² | - |
| 1778088522 | 0.56° C | 97% | 1022.9 hPa | 0 mm | - | 25 W/m² | - |
| 1778087613 | 0.56° C | 97% | 1022.8 hPa | 0 mm | - | 22 W/m² | - |
| 1778086706 | 0.56° C | 98% | 1022.8 hPa | 0 mm | - | 25 W/m² | - |
| 1778085796 | 0° C | 98% | 1022.1 hPa | 0 mm | - | 16 W/m² | - |
| 1778084279 | 0° C | 98% | 1022.3 hPa | 0 mm | - | 14 W/m² | - |
| 1778083674 | 0° C | 98% | 1022.2 hPa | 0 mm | - | 11 W/m² | - |
| 1778080119 | 0° C | 98% | 1021.5 hPa | 0 mm | - | 6 W/m² | - |
| 1778079512 | 0° C | 99% | 1021.5 hPa | 0 mm | - | 9 W/m² | - |
| 1778077696 | 0° C | 99% | 1021.3 hPa | 0 mm | - | 8 W/m² | - |
| 1778075881 | -0.56° C | 99% | 1021.4 hPa | 0 mm | - | 7 W/m² | - |
| 1778075577 | -0.56° C | 99% | 1021.2 hPa | 0 mm | - | 6 W/m² | - |
| 1778075274 | -0.56° C | 99% | 1021 hPa | 0 mm | - | 6 W/m² | - |
| 1778074364 | -0.56° C | 99% | 1021 hPa | 0 mm | - | 4 W/m² | - |
| 1778074061 | -0.56° C | 99% | 1021.2 hPa | 0 mm | - | 4 W/m² | - |
* Rain latest hour (hover to see other rain measurements)
** Current wind speed in m/s (hover to see current wind gust speed)